When you browse on this site, cookies collect data to enhance your experience and personalize the content and advertising you see.
Visit our Privacy Policy to learn more. By continuing to use the site, you agree to this use of cookies and data.
  • în România
  • Lista ţărilor
  • Pe 7 zile
  • Temperatura apei
  • Hartă satelitară
  • Meteo pe hartă
  • Widget-uri
  • user-avatar
    Intrare

    Meteo pe oră la Lipiga

    Astăzi, 25 Martie, Luni

    Timp Temperatura Precipitaţii Vânt Presiune Umiditate
    00:00 -2°C° 0 mm 2 m/s 741 mmHg 87%
    01:00 -4°C° 0 mm 3 m/s 741 mmHg 86%
    02:00 -4°C° 0 mm 3 m/s 741 mmHg 85%
    03:00 -4°C° 0 mm 3 m/s 741 mmHg 85%
    04:00 -4°C° 0 mm 3 m/s 741 mmHg 85%
    05:00 -5°C° 0 mm 3 m/s 741 mmHg 85%
    06:00 -4°C° 0 mm 3 m/s 741 mmHg 82%
    07:00 -2°C° 0 mm 3 m/s 741 mmHg 79%
    08:00 -1°C° 0 mm 3 m/s 741 mmHg 76%
    09:00 +1°C° 0 mm 3 m/s 741 mmHg 70%
    10:00 +2°C° 0 mm 3 m/s 741 mmHg 65%
    11:00 +4°C° 0 mm 3 m/s 741 mmHg 60%
    12:00 +4°C° 0 mm 3 m/s 741 mmHg 59%
    13:00 +5°C° 0 mm 4 m/s 740 mmHg 58%
    14:00 +5°C° 0 mm 4 m/s 740 mmHg 58%
    15:00 +4°C° 0 mm 3 m/s 740 mmHg 62%
    16:00 +5°C° 0 mm 2 m/s 740 mmHg 67%
    17:00 +4°C° 0 mm 2 m/s 739 mmHg 71%
    18:00 +2°C° 0 mm 2 m/s 739 mmHg 74%
    19:00 +1°C° 0 mm 2 m/s 739 mmHg 77%
    20:00 -1°C° 0 mm 2 m/s 739 mmHg 80%
    21:00 -1°C° 0 mm 2 m/s 739 mmHg 81%
    22:00 -1°C° 0 mm 2 m/s 739 mmHg 82%
    23:00 -1°C° 0 mm 2 m/s 739 mmHg 82%

    Mâine, 26 Martie, Marţi

    Timp Temperatura Precipitaţii Vânt Presiune Umiditate
    00:00 -1°C° 0 mm 2 m/s 739 mmHg 83%
    01:00 -2°C° 0 mm 2 m/s 738 mmHg 84%
    02:00 -2°C° 0 mm 2 m/s 738 mmHg 84%
    03:00 -2°C° 0 mm 2 m/s 738 mmHg 85%
    04:00 -2°C° 0 mm 2 m/s 737 mmHg 85%
    05:00 -2°C° 0 mm 2 m/s 737 mmHg 85%
    06:00 -1°C° 0.1 mm 2 m/s 737 mmHg 84%
    07:00 0°C° 0.1 mm 3 m/s 737 mmHg 82%
    08:00 0°C° 0.1 mm 3 m/s 737 mmHg 81%
    09:00 +1°C° 0.3 mm 3 m/s 737 mmHg 79%
    10:00 +1°C° 0.3 mm 3 m/s 737 mmHg 78%
    11:00 +2°C° 0.3 mm 3 m/s 737 mmHg 76%
    12:00 +2°C° 0.2 mm 3 m/s 737 mmHg 73%
    13:00 +1°C° 0.2 mm 4 m/s 737 mmHg 70%
    14:00 +1°C° 0.2 mm 4 m/s 737 mmHg 67%
    15:00 0°C° 0.1 mm 4 m/s 737 mmHg 67%
    16:00 0°C° 0.1 mm 3 m/s 738 mmHg 68%
    17:00 0°C° 0.1 mm 3 m/s 738 mmHg 69%
    18:00 -1°C° 0 mm 3 m/s 738 mmHg 73%
    19:00 -3°C° 0 mm 2 m/s 739 mmHg 77%
    20:00 -4°C° 0 mm 2 m/s 739 mmHg 80%
    21:00 -4°C° 0 mm 2 m/s 739 mmHg 81%
    22:00 -4°C° 0 mm 2 m/s 739 mmHg 82%
    23:00 -5°C° 0 mm 2 m/s 740 mmHg 82%

    Poimâine, 27 Martie, Miercuri

    Timp Temperatura Precipitaţii Vânt Presiune Umiditate
    00:00 -5°C° 0 mm 2 m/s 740 mmHg 82%
    01:00 -4°C° 0 mm 2 m/s 740 mmHg 81%
    02:00 -5°C° 0 mm 3 m/s 741 mmHg 81%
    03:00 -5°C° 0 mm 3 m/s 741 mmHg 81%
    04:00 -5°C° 0 mm 3 m/s 741 mmHg 82%
    05:00 -4°C° 0 mm 4 m/s 742 mmHg 82%
    06:00 -4°C° 0.1 mm 4 m/s 742 mmHg 79%
    07:00 -3°C° 0.1 mm 4 m/s 742 mmHg 76%
    08:00 -3°C° 0.1 mm 4 m/s 743 mmHg 74%
    09:00 -2°C° 0.2 mm 4 m/s 743 mmHg 70%
    10:00 -2°C° 0.2 mm 5 m/s 744 mmHg 66%
    11:00 -1°C° 0.2 mm 5 m/s 744 mmHg 62%
    12:00 -1°C° 0.2 mm 5 m/s 745 mmHg 60%
    13:00 -2°C° 0.2 mm 6 m/s 746 mmHg 59%
    14:00 -1°C° 0.2 mm 6 m/s 746 mmHg 58%
    15:00 -1°C° 0 mm 5 m/s 747 mmHg 60%
    16:00 -1°C° 0 mm 5 m/s 747 mmHg 62%
    17:00 -2°C° 0 mm 5 m/s 748 mmHg 65%
    18:00 -3°C° 0 mm 4 m/s 749 mmHg 69%
    19:00 -3°C° 0 mm 4 m/s 749 mmHg 74%
    20:00 -4°C° 0 mm 4 m/s 750 mmHg 79%
    21:00 -4°C° 0 mm 3 m/s 750 mmHg 80%
    22:00 -4°C° 0 mm 3 m/s 751 mmHg 81%
    23:00 -4°C° 0 mm 3 m/s 752 mmHg 81%

    28 Martie, Joi

    Timp Temperatura Precipitaţii Vânt Presiune Umiditate
    00:00 -5°C° 0 mm 3 m/s 752 mmHg 82%
    01:00 -5°C° 0 mm 3 m/s 753 mmHg 83%
    02:00 -5°C° 0 mm 3 m/s 753 mmHg 84%
    03:00 -6°C° 0 mm 3 m/s 754 mmHg 85%
    04:00 -6°C° 0 mm 3 m/s 754 mmHg 85%
    05:00 -6°C° 0 mm 3 m/s 755 mmHg 85%
    06:00 -5°C° 0 mm 3 m/s 755 mmHg 79%
    07:00 -4°C° 0 mm 3 m/s 756 mmHg 73%
    08:00 -2°C° 0 mm 3 m/s 756 mmHg 67%
    09:00 -1°C° 0 mm 3 m/s 756 mmHg 61%
    10:00 0°C° 0 mm 3 m/s 756 mmHg 55%
    11:00 +1°C° 0 mm 3 m/s 756 mmHg 49%
    12:00 +2°C° 0 mm 3 m/s 756 mmHg 47%
    13:00 +2°C° 0 mm 3 m/s 756 mmHg 45%
    14:00 +3°C° 0 mm 3 m/s 755 mmHg 43%
    15:00 +3°C° 0 mm 3 m/s 755 mmHg 48%
    16:00 +2°C° 0 mm 3 m/s 755 mmHg 54%
    17:00 +3°C° 0 mm 2 m/s 755 mmHg 60%
    18:00 +2°C° 0 mm 2 m/s 754 mmHg 65%
    19:00 +1°C° 0 mm 3 m/s 754 mmHg 70%
    20:00 0°C° 0 mm 3 m/s 754 mmHg 75%
    21:00 0°C° 0 mm 3 m/s 754 mmHg 79%
    22:00 0°C° 0 mm 3 m/s 753 mmHg 84%
    23:00 0°C° 0 mm 3 m/s 753 mmHg 88%

    29 Martie, Vineri

    Timp Temperatura Precipitaţii Vânt Presiune Umiditate
    00:00 0°C° 0 mm 3 m/s 753 mmHg 87%
    01:00 -1°C° 0 mm 4 m/s 752 mmHg 86%
    02:00 0°C° 0 mm 4 m/s 752 mmHg 85%
    03:00 0°C° 0 mm 4 m/s 752 mmHg 86%
    04:00 0°C° 0 mm 4 m/s 752 mmHg 87%
    05:00 0°C° 0 mm 4 m/s 752 mmHg 89%
    06:00 0°C° 0 mm 4 m/s 752 mmHg 87%
    07:00 +1°C° 0 mm 4 m/s 752 mmHg 85%
    08:00 +1°C° 0 mm 4 m/s 752 mmHg 84%
    09:00 +3°C° 0 mm 4 m/s 752 mmHg 81%
    10:00 +3°C° 0 mm 5 m/s 752 mmHg 77%
    11:00 +5°C° 0 mm 5 m/s 752 mmHg 74%
    12:00 +6°C° 0 mm 5 m/s 751 mmHg 72%
    13:00 +7°C° 0 mm 5 m/s 751 mmHg 70%
    14:00 +8°C° 0 mm 5 m/s 751 mmHg 68%
    15:00 +8°C° 0 mm 4 m/s 751 mmHg 72%
    16:00 +8°C° 0 mm 3 m/s 751 mmHg 76%
    17:00 +8°C° 0 mm 2 m/s 751 mmHg 79%
    18:00 +6°C° 0 mm 2 m/s 751 mmHg 83%
    19:00 +5°C° 0 mm 2 m/s 751 mmHg 87%
    20:00 +4°C° 0 mm 2 m/s 751 mmHg 91%
    21:00 +4°C° 0 mm 2 m/s 751 mmHg 91%
    22:00 +3°C° 0 mm 2 m/s 750 mmHg 91%
    23:00 +3°C° 0 mm 2 m/s 750 mmHg 92%

    30 Martie, Sâmbătă

    Timp Temperatura Precipitaţii Vânt Presiune Umiditate
    00:00 +3°C° 0 mm 2 m/s 750 mmHg 92%
    01:00 +2°C° 0 mm 3 m/s 749 mmHg 92%
    02:00 +1°C° 0 mm 3 m/s 749 mmHg 92%
    03:00 +1°C° 0 mm 3 m/s 749 mmHg 92%
    04:00 +1°C° 0 mm 3 m/s 749 mmHg 92%
    05:00 +1°C° 0 mm 3 m/s 748 mmHg 93%
    06:00 +2°C° 0 mm 3 m/s 748 mmHg 90%
    07:00 +1°C° 0 mm 4 m/s 748 mmHg 88%
    08:00 +3°C° 0 mm 4 m/s 748 mmHg 85%
    09:00 +3°C° 0 mm 4 m/s 748 mmHg 83%
    10:00 +4°C° 0 mm 4 m/s 748 mmHg 82%
    11:00 +4°C° 0 mm 4 m/s 748 mmHg 80%
    12:00 +4°C° 0 mm 4 m/s 747 mmHg 79%
    13:00 +4°C° 0 mm 4 m/s 747 mmHg 78%
    14:00 +4°C° 0 mm 4 m/s 747 mmHg 78%
    15:00 +4°C° 0 mm 3 m/s 747 mmHg 78%
    16:00 +4°C° 0 mm 3 m/s 746 mmHg 79%
    17:00 +4°C° 0 mm 3 m/s 746 mmHg 79%
    18:00 +4°C° 0 mm 3 m/s 746 mmHg 81%
    19:00 +3°C° 0 mm 3 m/s 746 mmHg 82%
    20:00 +3°C° 0 mm 3 m/s 746 mmHg 84%
    21:00 +3°C° 0 mm 3 m/s 745 mmHg 84%
    22:00 +3°C° 0 mm 3 m/s 745 mmHg 84%
    23:00 +3°C° 0 mm 3 m/s 745 mmHg 84%
    Arată mai mult